Location: N�rnberg
(49.4471°N, 11.0632°E)
Time: 21:59:13
(UTC+02:00)

VELOX 1 - Pass Details

Date: 19 April 2026
Orbit: 569 x 580 km, 98.3° (Epoch: 13 May)

Event Time Altitude Azimuth Distance (km) Brightness Sun altitude
Rises 00:45:30 0° 13° (NNE) 2,785 ? -29.1°
Reaches altitude 10° 00:47:39 10° 13° (NNE) 1,882 ? -29.2°
Enters shadow 00:50:02 34° 11° (N) 945 ? -29.2°
